| time (UTC) | temp C | wind direction | speed KPH | gust KPH | rain 1hr cm | rain 24hr cm | rain mn cm | humidity % | barometer mb |
| 20260504141206 | 18 | 240 | 3.2 | 4.8 | 0.00 | 0.00 | 0.00 | 48 | 1019.8 |
| 20260504140703 | 18 | 243 | 6.4 | 6.4 | 0.00 | 0.00 | 0.00 | 48 | 1019.7 |
| 20260504140158 | 18 | 245 | 1.6 | 4.8 | 0.00 | 0.00 | 0.00 | 51 | 1019.7 |
| 20260504130626 | 16 | 231 | 1.6 | 3.2 | 0.00 | 0.00 | 0.00 | 59 | 1019.8 |
| 20260504130123 | 16 | 231 | 0.0 | 1.6 | 0.00 | 0.00 | 0.00 | 61 | 1019.5 |
| 20260504110508 | 7 | 234 | 0.0 | 1.6 | 0.00 | 0.00 | 0.00 | 85 | 1019.4 |
| 20260504100419 | 7 | 235 | 0.0 | 1.6 | 0.00 | 0.00 | 0.00 | 88 | 1019.0 |
| 20260504081806 | 8 | 240 | 0.0 | 0.0 | 0.00 | 0.00 | 0.00 | 84 | 1019.0 |
| 20260504081303 | 8 | 240 | 0.0 | 0.0 | 0.00 | 0.00 | 0.00 | 82 | 1018.9 |
| 20260504080759 | 8 | 240 | 0.0 | 0.0 | 0.00 | 0.00 | 0.00 | 82 | 1018.9 |
| 20260504080255 | 8 | 240 | 0.0 | 0.0 | 0.00 | 0.00 | 0.00 | 82 | 1019.1 |
| 20260504070223 | 10 | 240 | 0.0 | 1.6 | 0.00 | 0.00 | 0.00 | 71 | 1019.5 |
| 20260504060144 | 11 | 239 | 1.6 | 3.2 | 0.00 | 0.00 | 0.00 | 67 | 1019.4 |
| 20260504050612 | 12 | 238 | 1.6 | 3.2 | 0.00 | 0.00 | 0.00 | 62 | 1019.6 |
| 20260504050109 | 12 | 234 | 1.6 | 3.2 | 0.00 | 0.00 | 0.00 | 62 | 1019.6 |
| 20260504045606 | 12 | 234 | 1.6 | 3.2 | 0.00 | 0.00 | 0.00 | 62 | 1019.5 |
| 20260504045101 | 12 | 247 | 1.6 | 3.2 | 0.00 | 0.00 | 0.00 | 62 | 1019.5 |
| 20260504044559 | 12 | 244 | 1.6 | 3.2 | 0.00 | 0.00 | 0.00 | 61 | 1019.6 |
| 20260504044055 | 12 | 229 | 1.6 | 3.2 | 0.00 | 0.00 | 0.00 | 62 | 1019.6 |
| 20260504043553 | 12 | 257 | 3.2 | 3.2 | 0.00 | 0.00 | 0.00 | 62 | 1019.3 |
| 20260504043050 | 12 | 244 | 1.6 | 1.6 | 0.00 | 0.00 | 0.00 | 63 | 1019.6 |
| 20260504042547 | 12 | 243 | 1.6 | 1.6 | 0.00 | 0.00 | 0.00 | 64 | 1019.6 |
| 20260504042044 | 12 | 231 | 0.0 | 3.2 | 0.00 | 0.00 | 0.00 | 64 | 1019.6 |
| 20260504041539 | 12 | 249 | 1.6 | 3.2 | 0.00 | 0.00 | 0.00 | 64 | 1019.5 |
| 20260504041036 | 11 | 252 | 1.6 | 3.2 | 0.00 | 0.00 | 0.00 | 66 | 1019.6 |
| 20260504040533 | 11 | 237 | 0.0 | 0.0 | 0.00 | 0.00 | 0.00 | 67 | 1019.5 |
| 20260504040030 | 11 | 237 | 0.0 | 1.6 | 0.00 | 0.00 | 0.00 | 65 | 1019.6 |
| 20260504035527 | 11 | 237 | 0.0 | 0.0 | 0.00 | 0.00 | 0.00 | 66 | 1019.5 |
| 20260504035023 | 11 | 237 | 0.0 | 1.6 | 0.00 | 0.00 | 0.00 | 66 | 1019.5 |
| 20260504034521 | 11 | 237 | 0.0 | 1.6 | 0.00 | 0.00 | 0.00 | 66 | 1019.7 |
| 20260504034017 | 12 | 237 | 0.0 | 1.6 | 0.00 | 0.00 | 0.00 | 67 | 1019.8 |
| 20260504033516 | 12 | 237 | 0.0 | 0.0 | 0.00 | 0.00 | 0.00 | 65 | 1019.6 |
| 20260504033013 | 12 | 237 | 0.0 | 1.6 | 0.00 | 0.00 | 0.00 | 63 | 1019.8 |
| 20260504032509 | 11 | 237 | 0.0 | 0.0 | 0.00 | 0.00 | 0.00 | 66 | 1019.7 |
| 20260504032006 | 12 | 237 | 0.0 | 0.0 | 0.00 | 0.00 | 0.00 | 65 | 1019.7 |
| 20260504031503 | 12 | 237 | 1.6 | 1.6 | 0.00 | 0.00 | 0.00 | 64 | 1019.7 |
| 20260504030959 | 12 | 237 | 1.6 | 1.6 | 0.00 | 0.00 | 0.00 | 64 | 1019.8 |
| 20260504030457 | 12 | 237 | 0.0 | 1.6 | 0.00 | 0.00 | 0.00 | 63 | 1019.7 |
| 20260504025952 | 12 | 237 | 0.0 | 1.6 | 0.00 | 0.00 | 0.00 | 65 | 1019.7 |
| 20260504025450 | 12 | 237 | 0.0 | 1.6 | 0.00 | 0.00 | 0.00 | 64 | 1019.6 |
| 20260504024946 | 12 | 237 | 0.0 | 1.6 | 0.00 | 0.00 | 0.00 | 63 | 1019.7 |
| 20260504024443 | 12 | 237 | 0.0 | 1.6 | 0.00 | 0.00 | 0.00 | 61 | 1019.6 |
| 20260504023940 | 13 | 237 | 0.0 | 1.6 | 0.00 | 0.00 | 0.00 | 61 | 1019.4 |
| 20260504023437 | 13 | 237 | 1.6 | 1.6 | 0.00 | 0.00 | 0.00 | 60 | 1019.4 |
| 20260504022932 | 13 | 237 | 0.0 | 1.6 | 0.00 | 0.00 | 0.00 | 59 | 1019.6 |
| 20260504022429 | 13 | 237 | 0.0 | 3.2 | 0.00 | 0.00 | 0.00 | 59 | 1019.5 |
| 20260504021926 | 13 | 237 | 0.0 | 1.6 | 0.00 | 0.00 | 0.00 | 59 | 1019.5 |
| 20260504021423 | 13 | 237 | 0.0 | 1.6 | 0.00 | 0.00 | 0.00 | 59 | 1019.5 |
| 20260504020920 | 13 | 237 | 1.6 | 1.6 | 0.00 | 0.00 | 0.00 | 59 | 1019.2 |
| 20260504020416 | 13 | 237 | 1.6 | 1.6 | 0.00 | 0.00 | 0.00 | 59 | 1019.3 |
| 20260504013911 | 15 | 237 | 0.0 | 0.0 | 0.00 | 0.00 | 0.00 | 55 | 1018.8 |
| 20260504013409 | 15 | 237 | 0.0 | 0.0 | 0.00 | 0.00 | 0.00 | 55 | 1018.8 |
| 20260504012905 | 15 | 237 | 0.0 | 0.0 | 0.00 | 0.00 | 0.00 | 55 | 1018.8 |
| 20260504012403 | 15 | 237 | 0.0 | 1.6 | 0.00 | 0.00 | 0.00 | 51 | 1018.9 |
| 20260504011900 | 15 | 237 | 1.6 | 1.6 | 0.00 | 0.00 | 0.00 | 51 | 1018.9 |
| 20260504011356 | 15 | 237 | 1.6 | 1.6 | 0.00 | 0.00 | 0.00 | 51 | 1018.8 |
| 20260504010847 | 15 | 237 | 0.0 | 1.6 | 0.00 | 0.00 | 0.00 | 51 | 1018.8 |
| 20260504010343 | 15 | 237 | 0.0 | 0.0 | 0.00 | 0.00 | 0.00 | 51 | 1018.8 |
| 20260504005839 | 15 | 237 | 0.0 | 0.0 | 0.00 | 0.00 | 0.00 | 49 | 1018.5 |
| 20260504005336 | 16 | 237 | 0.0 | 0.0 | 0.00 | 0.00 | 0.00 | 48 | 1018.5 |
| 20260504004834 | 16 | 237 | 0.0 | 0.0 | 0.00 | 0.00 | 0.00 | 47 | 1018.4 |
| 20260504004331 | 16 | 237 | 1.6 | 1.6 | 0.00 | 0.00 | 0.00 | 46 | 1018.3 |
| 20260504003827 | 16 | 256 | 1.6 | 3.2 | 0.00 | 0.00 | 0.00 | 45 | 1018.3 |
| 20260504003325 | 16 | 241 | 1.6 | 4.8 | 0.00 | 0.00 | 0.00 | 44 | 1018.3 |
| 20260504002821 | 17 | 237 | 1.6 | 3.2 | 0.00 | 0.00 | 0.00 | 44 | 1018.3 |
| 20260504002318 | 17 | 228 | 1.6 | 3.2 | 0.00 | 0.00 | 0.00 | 43 | 1018.1 |
| 20260504001816 | 17 | 251 | 3.2 | 6.4 | 0.00 | 0.00 | 0.00 | 42 | 1017.8 |
| 20260504001313 | 17 | 251 | 1.6 | 6.4 | 0.00 | 0.00 | 0.00 | 41 | 1018.3 |
| 20260504000810 | 17 | 235 | 3.2 | 4.8 | 0.00 | 0.00 | 0.00 | 40 | 1018.1 |
| 20260504000307 | 18 | 243 | 0.0 | 4.8 | 0.00 | 0.00 | 0.00 | 40 | 1017.9 |
| 20260503235804 | 18 | 252 | 3.2 | 9.7 | 0.00 | 0.00 | 0.00 | 39 | 1018.1 |
| 20260503235301 | 18 | 249 | 6.4 | 12.9 | 0.00 | 0.00 | 0.00 | 38 | 1018.1 |
| 20260503234759 | 19 | 254 | 1.6 | 6.4 | 0.00 | 0.00 | 0.00 | 37 | 1018.2 |
| 20260503234257 | 19 | 234 | 1.6 | 4.8 | 0.00 | 0.00 | 0.00 | 37 | 1018.0 |
| 20260503233754 | 20 | 248 | 6.4 | 9.7 | 0.00 | 0.00 | 0.00 | 36 | 1018.1 |
| 20260503233249 | 20 | 246 | 3.2 | 6.4 | 0.00 | 0.00 | 0.00 | 36 | 1017.9 |
| 20260503232747 | 20 | 256 | 3.2 | 12.9 | 0.00 | 0.00 | 0.00 | 36 | 1018.0 |
| 20260503232244 | 20 | 260 | 6.4 | 12.9 | 0.00 | 0.00 | 0.00 | 36 | 1017.9 |
| 20260503231742 | 20 | 228 | 6.4 | 9.7 | 0.00 | 0.00 | 0.00 | 35 | 1018.0 |
| 20260503231239 | 20 | 265 | 6.4 | 6.4 | 0.00 | 0.00 | 0.00 | 35 | 1018.1 |
| 20260503230734 | 20 | 258 | 3.2 | 9.7 | 0.00 | 0.00 | 0.00 | 37 | 1018.0 |
| 20260503230232 | 20 | 257 | 6.4 | 11.3 | 0.00 | 0.00 | 0.00 | 36 | 1018.1 |
| 20260503225729 | 21 | 244 | 1.6 | 3.2 | 0.00 | 0.00 | 0.00 | 35 | 1018.2 |
| 20260503225223 | 21 | 258 | 1.6 | 6.4 | 0.00 | 0.00 | 0.00 | 35 | 1018.2 |
| 20260503224721 | 21 | 237 | 8.0 | 12.9 | 0.00 | 0.00 | 0.00 | 34 | 1018.2 |
| 20260503224218 | 20 | 249 | 9.7 | 12.9 | 0.00 | 0.00 | 0.00 | 33 | 1018.2 |
| 20260503223716 | 21 | 229 | 3.2 | 4.8 | 0.00 | 0.00 | 0.00 | 35 | 1018.0 |
| 20260503223214 | 21 | 250 | 0.0 | 4.8 | 0.00 | 0.00 | 0.00 | 34 | 1018.1 |
| 20260503222710 | 21 | 260 | 1.6 | 16.1 | 0.00 | 0.00 | 0.00 | 35 | 1018.2 |
| 20260503222208 | 21 | 226 | 3.2 | 9.7 | 0.00 | 0.00 | 0.00 | 35 | 1018.1 |
| 20260503221706 | 21 | 260 | 4.8 | 11.3 | 0.00 | 0.00 | 0.00 | 35 | 1018.1 |
| 20260503221203 | 21 | 223 | 8.0 | 16.1 | 0.00 | 0.00 | 0.00 | 33 | 1018.1 |
| 20260503220700 | 21 | 237 | 4.8 | 9.7 | 0.00 | 0.00 | 0.00 | 31 | 1018.1 |
| 20260503220156 | 22 | 256 | 6.4 | 9.7 | 0.00 | 0.00 | 0.00 | 33 | 1018.2 |
| 20260503215653 | 22 | 227 | 6.4 | 9.7 | 0.00 | 0.00 | 0.00 | 35 | 1018.1 |
| 20260503215149 | 22 | 164 | 9.7 | 12.9 | 0.00 | 0.00 | 0.00 | 32 | 1018.1 |
| 20260503214648 | 22 | 241 | 1.6 | 1.6 | 0.00 | 0.00 | 0.00 | 32 | 1018.3 |
| 20260503214143 | 21 | 256 | 4.8 | 11.3 | 0.00 | 0.00 | 0.00 | 35 | 1018.5 |
| 20260503213638 | 22 | 262 | 1.6 | 6.4 | 0.00 | 0.00 | 0.00 | 33 | 1018.2 |
| 20260503213134 | 22 | 155 | 3.2 | 9.7 | 0.00 | 0.00 | 0.00 | 31 | 1018.3 |
| 20260503212631 | 21 | 276 | 8.0 | 16.1 | 0.00 | 0.00 | 0.00 | 32 | 1018.3 |
| 20260503212129 | 21 | 229 | 1.6 | 11.3 | 0.00 | 0.00 | 0.00 | 33 | 1018.1 |
| 20260503211627 | 21 | 244 | 3.2 | 11.3 | 0.00 | 0.00 | 0.00 | 34 | 1018.4 |
| 20260503211121 | 22 | 266 | 4.8 | 6.4 | 0.00 | 0.00 | 0.00 | 36 | 1018.6 |
| 20260503210618 | 22 | 258 | 1.6 | 6.4 | 0.00 | 0.00 | 0.00 | 34 | 1018.2 |
| 20260503210115 | 22 | 259 | 1.6 | 6.4 | 0.00 | 0.00 | 0.00 | 37 | 1018.6 |
| 20260503205611 | 21 | 228 | 1.6 | 9.7 | 0.00 | 0.00 | 0.00 | 36 | 1018.4 |
| 20260503205107 | 21 | 265 | 9.7 | 14.5 | 0.00 | 0.00 | 0.00 | 34 | 1018.7 |
| 20260503204604 | 21 | 240 | 6.4 | 16.1 | 0.00 | 0.00 | 0.00 | 34 | 1018.6 |
| 20260503204101 | 21 | 222 | 0.0 | 4.8 | 0.00 | 0.00 | 0.00 | 33 | 1018.7 |
| 20260503203558 | 22 | 254 | 3.2 | 11.3 | 0.00 | 0.00 | 0.00 | 32 | 1018.7 |
| 20260503203055 | 22 | 256 | 3.2 | 6.4 | 0.00 | 0.00 | 0.00 | 34 | 1018.9 |
| 20260503202553 | 22 | 51 | 4.8 | 6.4 | 0.00 | 0.00 | 0.00 | 31 | 1018.9 |
| 20260503202051 | 22 | 219 | 1.6 | 11.3 | 0.00 | 0.00 | 0.00 | 31 | 1019.0 |
| 20260503201549 | 22 | 257 | 3.2 | 20.9 | 0.00 | 0.00 | 0.00 | 31 | 1019.1 |
| 20260503201046 | 22 | 216 | 0.0 | 4.8 | 0.00 | 0.00 | 0.00 | 34 | 1019.1 |
| 20260503200542 | 21 | 266 | 1.6 | 9.7 | 0.00 | 0.00 | 0.00 | 33 | 1019.2 |
| 20260503200038 | 21 | 234 | 1.6 | 9.7 | 0.00 | 0.00 | 0.00 | 34 | 1019.3 |
| 20260503195536 | 21 | 252 | 4.8 | 12.9 | 0.00 | 0.00 | 0.00 | 34 | 1019.3 |
| 20260503195032 | 22 | 0 | 1.6 | 3.2 | 0.00 | 0.00 | 0.00 | 35 | 1019.6 |
| 20260503194530 | 22 | 249 | 6.4 | 11.3 | 0.00 | 0.00 | 0.00 | 36 | 1019.7 |
| 20260503194030 | 21 | 254 | 0.0 | 9.7 | 0.00 | 0.00 | 0.00 | 37 | 1019.7 |
| 20260503193527 | 21 | 241 | 0.0 | 4.8 | 0.00 | 0.00 | 0.00 | 35 | 1019.7 |
| 20260503193022 | 21 | 243 | 6.4 | 9.7 | 0.00 | 0.00 | 0.00 | 37 | 1019.7 |
| 20260503192518 | 21 | 244 | 0.0 | 4.8 | 0.00 | 0.00 | 0.00 | 34 | 1020.0 |
| 20260503192014 | 21 | 261 | 6.4 | 11.3 | 0.00 | 0.00 | 0.00 | 34 | 1020.0 |
| 20260503191511 | 21 | 273 | 3.2 | 9.7 | 0.00 | 0.00 | 0.00 | 35 | 1020.3 |
| 20260503191008 | 21 | 242 | 1.6 | 4.8 | 0.00 | 0.00 | 0.00 | 36 | 1020.2 |
| 20260503190505 | 22 | 247 | 4.8 | 4.8 | 0.00 | 0.00 | 0.00 | 35 | 1020.2 |
| 20260503190002 | 21 | 221 | 0.0 | 9.7 | 0.00 | 0.00 | 0.00 | 37 | 1020.3 |
| 20260503185458 | 21 | 222 | 1.6 | 6.4 | 0.00 | 0.00 | 0.00 | 35 | 1020.5 |
| 20260503184957 | 21 | 246 | 3.2 | 6.4 | 0.00 | 0.00 | 0.00 | 34 | 1020.4 |
| 20260503184454 | 21 | 272 | 6.4 | 11.3 | 0.00 | 0.00 | 0.00 | 36 | 1020.5 |
| 20260503183951 | 21 | 295 | 0.0 | 3.2 | 0.00 | 0.00 | 0.00 | 34 | 1020.5 |
| 20260503183447 | 21 | 260 | 3.2 | 6.4 | 0.00 | 0.00 | 0.00 | 36 | 1020.8 |
| 20260503182944 | 20 | 30 | 0.0 | 4.8 | 0.00 | 0.00 | 0.00 | 36 | 1020.8 |
| 20260503182443 | 20 | 279 | 6.4 | 12.9 | 0.00 | 0.00 | 0.00 | 35 | 1021.1 |
| 20260503181940 | 20 | 219 | 3.2 | 3.2 | 0.00 | 0.00 | 0.00 | 34 | 1020.8 |
| 20260503181437 | 20 | 265 | 3.2 | 12.9 | 0.00 | 0.00 | 0.00 | 36 | 1020.9 |
| 20260503180933 | 20 | 182 | 3.2 | 6.4 | 0.00 | 0.00 | 0.00 | 39 | 1020.8 |
| 20260503180431 | 20 | 278 | 4.8 | 4.8 | 0.00 | 0.00 | 0.00 | 39 | 1021.0 |
| 20260503175928 | 20 | 55 | 3.2 | 6.4 | 0.00 | 0.00 | 0.00 | 36 | 1020.9 |
| 20260503175426 | 20 | 226 | 1.6 | 4.8 | 0.00 | 0.00 | 0.00 | 34 | 1021.0 |
| 20260503174921 | 20 | 246 | 1.6 | 9.7 | 0.00 | 0.00 | 0.00 | 39 | 1020.9 |
| 20260503174420 | 20 | 52 | 6.4 | 9.7 | 0.00 | 0.00 | 0.00 | 38 | 1021.0 |
| 20260503173920 | 20 | 316 | 4.8 | 11.3 | 0.00 | 0.00 | 0.00 | 37 | 1021.1 |
| 20260503173417 | 20 | 335 | 3.2 | 3.2 | 0.00 | 0.00 | 0.00 | 36 | 1021.1 |
| 20260503172914 | 20 | 235 | 1.6 | 3.2 | 0.00 | 0.00 | 0.00 | 35 | 1021.3 |
| 20260503172411 | 19 | 250 | 0.0 | 9.7 | 0.00 | 0.00 | 0.00 | 34 | 1021.2 |
| 20260503171907 | 20 | 266 | 4.8 | 4.8 | 0.00 | 0.00 | 0.00 | 34 | 1021.3 |
| 20260503171404 | 19 | 211 | 0.0 | 9.7 | 0.00 | 0.00 | 0.00 | 36 | 1021.3 |
| 20260503170902 | 18 | 239 | 0.0 | 4.8 | 0.00 | 0.00 | 0.00 | 37 | 1021.4 |
| 20260503170358 | 18 | 227 | 0.0 | 6.4 | 0.00 | 0.00 | 0.00 | 39 | 1021.6 |
| 20260503150750 | 17 | 237 | 1.6 | 6.4 | 0.00 | 0.00 | 0.00 | 46 | 1022.0 |
| 20260503150246 | 17 | 219 | 0.0 | 1.6 | 0.00 | 0.00 | 0.00 | 45 | 1022.3 |